TimeEST,TemperatureF,Dew PointF,Humidity,Sea Level PressureIn,VisibilityMPH,Wind Direction,Wind SpeedMPH,Gust SpeedMPH,PrecipitationIn,Events,Conditions,WindDirDegrees,DateUTC
12:13 AM,43.3,37.2,79,29.86,10.0,SW,8.1,-,N/A,,Overcast,220,2013-11-15 05:13:00
12:33 AM,43.3,36.7,77,29.86,10.0,SSW,5.8,-,N/A,,Mostly Cloudy,210,2013-11-15 05:33:00
12:53 AM,43.7,36.5,76,29.87,10.0,SW,5.8,-,N/A,,Scattered Clouds,220,2013-11-15 05:53:00
1:13 AM,44.1,36.5,75,29.87,10.0,SSW,6.9,-,N/A,,Overcast,210,2013-11-15 06:13:00
1:33 AM,44.2,36.5,74,29.87,10.0,SW,5.8,-,N/A,,Overcast,220,2013-11-15 06:33:00
1:54 AM,44.6,36.1,72,29.86,10.0,SW,6.9,-,N/A,,Overcast,220,2013-11-15 06:54:00
2:14 AM,44.6,35.6,71,29.86,10.0,SSW,5.8,-,N/A,,Overcast,210,2013-11-15 07:14:00
2:34 AM,44.8,36.1,72,29.86,10.0,SSW,5.8,-,N/A,,Overcast,210,2013-11-15 07:34:00
2:54 AM,45.0,35.8,70,29.86,10.0,SSW,6.9,-,N/A,,Overcast,200,2013-11-15 07:54:00
3:14 AM,45.5,35.4,68,29.86,10.0,SSW,8.1,-,N/A,,Overcast,210,2013-11-15 08:14:00
3:34 AM,45.5,34.9,66,29.86,10.0,SW,5.8,-,N/A,,Overcast,220,2013-11-15 08:34:00
3:54 AM,44.6,37.0,75,29.86,10.0,SSW,8.1,-,N/A,,Overcast,200,2013-11-15 08:54:00
4:14 AM,44.6,37.0,75,29.85,10.0,SSW,8.1,-,N/A,,Overcast,210,2013-11-15 09:14:00
4:34 AM,44.4,37.2,76,29.85,10.0,SSW,4.6,-,N/A,,Overcast,210,2013-11-15 09:34:00
4:55 AM,44.8,36.5,73,29.85,10.0,SSW,10.4,16.1,N/A,,Scattered Clouds,210,2013-11-15 09:55:00
5:15 AM,44.6,36.9,74,29.85,10.0,SSW,9.2,-,N/A,,Clear,200,2013-11-15 10:15:00
5:35 AM,44.6,36.5,73,29.86,10.0,SSW,6.9,-,N/A,,Clear,200,2013-11-15 10:35:00
5:55 AM,44.6,36.9,74,29.86,10.0,SW,5.8,-,N/A,,Clear,220,2013-11-15 10:55:00
6:15 AM,43.9,36.7,76,29.86,10.0,South,4.6,-,N/A,,Clear,190,2013-11-15 11:15:00
6:35 AM,44.6,36.5,73,29.86,10.0,SW,6.9,-,N/A,,Clear,220,2013-11-15 11:35:00
6:55 AM,43.2,36.5,77,29.87,10.0,SSW,3.5,-,N/A,,Clear,200,2013-11-15 11:55:00
7:15 AM,44.6,36.5,73,29.88,10.0,South,5.8,-,N/A,,Clear,180,2013-11-15 12:15:00
7:36 AM,41.0,35.6,81,29.88,10.0,SE,4.6,-,N/A,,Clear,130,2013-11-15 12:36:00
7:56 AM,40.5,35.1,81,29.88,10.0,ESE,3.5,-,N/A,,Clear,120,2013-11-15 12:56:00
8:16 AM,40.6,35.2,81,29.89,10.0,SE,3.5,-,N/A,,Clear,130,2013-11-15 13:16:00
8:36 AM,41.7,35.8,79,29.89,10.0,SE,4.6,-,N/A,,Clear,140,2013-11-15 13:36:00
8:56 AM,42.8,36.0,77,29.90,10.0,SE,5.8,-,N/A,,Clear,140,2013-11-15 13:56:00
9:16 AM,44.6,36.5,73,29.90,10.0,South,4.6,-,N/A,,Clear,180,2013-11-15 14:16:00
9:36 AM,46.0,37.2,71,29.90,10.0,SSW,9.2,-,N/A,,Clear,200,2013-11-15 14:36:00
9:51 AM,46.6,37.4,70,29.90,10.0,SSW,9.2,-,N/A,,Clear,210,2013-11-15 14:51:00
10:11 AM,47.3,37.2,68,29.90,10.0,SSW,8.1,-,N/A,,Clear,200,2013-11-15 15:11:00
10:31 AM,47.8,37.2,67,29.90,10.0,SW,9.2,-,N/A,,Clear,220,2013-11-15 15:31:00
10:51 AM,48.2,38.1,68,29.90,10.0,SSW,9.2,-,N/A,,Clear,210,2013-11-15 15:51:00
11:12 AM,48.4,37.2,65,29.91,10.0,SW,8.1,17.3,N/A,,Clear,220,2013-11-15 16:12:00
11:32 AM,48.9,37.4,64,29.91,10.0,SSW,10.4,16.1,N/A,,Clear,210,2013-11-15 16:32:00
11:52 AM,48.6,37.6,66,29.91,10.0,SSW,11.5,19.6,N/A,,Clear,210,2013-11-15 16:52:00
12:12 PM,48.9,37.8,65,29.90,10.0,WSW,13.8,-,N/A,,Clear,240,2013-11-15 17:12:00
12:32 PM,49.1,37.6,64,29.90,10.0,SW,10.4,17.3,N/A,,Clear,220,2013-11-15 17:32:00
12:52 PM,48.6,37.2,65,29.90,10.0,SW,11.5,19.6,N/A,,Clear,220,2013-11-15 17:52:00
1:12 PM,48.4,36.9,64,29.89,10.0,SW,15.0,19.6,N/A,,Clear,230,2013-11-15 18:12:00
1:32 PM,48.9,37.6,65,29.89,10.0,SSW,11.5,17.3,N/A,,Clear,200,2013-11-15 18:32:00
1:53 PM,48.4,37.4,66,29.89,10.0,SSW,12.7,18.4,N/A,,Clear,210,2013-11-15 18:53:00
2:13 PM,48.0,37.2,66,29.89,10.0,SW,11.5,19.6,N/A,,Clear,220,2013-11-15 19:13:00
2:33 PM,48.2,37.6,67,29.89,10.0,SSW,13.8,17.3,N/A,,Clear,210,2013-11-15 19:33:00
2:53 PM,47.8,37.9,69,29.88,10.0,SSW,8.1,18.4,N/A,,Clear,200,2013-11-15 19:53:00
3:13 PM,47.7,38.3,70,29.88,10.0,SSW,11.5,17.3,N/A,,Clear,210,2013-11-15 20:13:00
3:33 PM,47.3,38.3,71,29.88,10.0,SSW,11.5,17.3,N/A,,Clear,210,2013-11-15 20:33:00
3:53 PM,47.3,38.8,72,29.88,10.0,SSW,10.4,16.1,N/A,,Clear,200,2013-11-15 20:53:00
4:13 PM,47.3,38.7,72,29.88,10.0,SW,8.1,-,N/A,,Clear,220,2013-11-15 21:13:00
4:33 PM,46.8,38.3,72,29.89,10.0,SSW,6.9,18.4,N/A,,Clear,200,2013-11-15 21:33:00
4:53 PM,46.4,38.3,73,29.89,10.0,SW,6.9,-,N/A,,Clear,220,2013-11-15 21:53:00
5:13 PM,45.7,38.3,75,29.89,10.0,SSW,6.9,-,N/A,,Clear,210,2013-11-15 22:13:00
5:34 PM,45.7,38.7,76,29.90,10.0,SSW,9.2,18.4,N/A,,Clear,200,2013-11-15 22:34:00
5:56 PM,45.5,38.7,77,29.90,10.0,SSW,5.8,16.1,N/A,,Clear,210,2013-11-15 22:56:00
6:16 PM,45.5,38.3,76,29.91,10.0,SSW,6.9,-,N/A,,Clear,210,2013-11-15 23:16:00
6:31 PM,45.5,38.5,76,29.91,10.0,SSW,8.1,-,N/A,,Clear,200,2013-11-15 23:31:00
6:51 PM,44.6,37.6,76,29.91,10.0,SSW,6.9,-,N/A,,Clear,200,2013-11-15 23:51:00
7:11 PM,44.1,36.5,75,29.92,10.0,South,4.6,-,N/A,,Clear,180,2013-11-16 00:11:00
7:31 PM,43.7,35.6,73,29.92,10.0,South,5.8,-,N/A,,Clear,170,2013-11-16 00:31:00
7:51 PM,43.0,35.1,74,29.92,10.0,SSE,4.6,-,N/A,,Clear,160,2013-11-16 00:51:00
8:12 PM,42.8,35.1,74,29.92,10.0,SE,3.5,-,N/A,,Clear,140,2013-11-16 01:12:00
8:32 PM,42.1,34.9,76,29.92,10.0,SE,5.8,-,N/A,,Clear,130,2013-11-16 01:32:00
8:52 PM,41.9,35.1,77,29.92,10.0,SE,3.5,-,N/A,,Clear,130,2013-11-16 01:52:00
9:12 PM,41.7,35.1,77,29.92,10.0,ESE,3.5,-,N/A,,Clear,120,2013-11-16 02:12:00
9:32 PM,41.7,35.1,77,29.91,10.0,ESE,4.6,-,N/A,,Clear,110,2013-11-16 02:32:00
9:52 PM,41.4,35.1,78,29.91,10.0,ESE,3.5,-,N/A,,Clear,110,2013-11-16 02:52:00
10:12 PM,41.4,35.1,78,29.91,10.0,ESE,3.5,-,N/A,,Clear,110,2013-11-16 03:12:00
10:32 PM,41.2,34.9,78,29.92,10.0,ESE,3.5,-,N/A,,Clear,120,2013-11-16 03:32:00
10:52 PM,41.0,34.9,79,29.92,10.0,Calm,Calm,-,N/A,,Clear,0,2013-11-16 03:52:00
11:12 PM,41.0,35.1,79,29.92,10.0,SE,4.6,-,N/A,,Clear,130,2013-11-16 04:12:00
11:32 PM,40.8,35.1,80,29.93,10.0,Calm,Calm,-,N/A,,Clear,0,2013-11-16 04:32:00
11:53 PM,39.2,34.3,83,29.92,10.0,ESE,3.5,-,N/A,,Clear,120,2013-11-16 04:53:00